Location: Treviso
(45.6669°N, 12.2430°E)
Time: 19:57:39
(UTC+02:00)

ISS - Pass Details

Date: 24 May 2018
Orbit: 402 x 408 km, 51.6° (Epoch: 19 September)

Event Time Altitude Azimuth Distance (km) Brightness Sun altitude
Rises 01:16:11 0° 295° (WNW) 2,321 0.3 -23.6°
Reaches altitude 10° 01:18:24 10° 306° (NW) 1,459 -0.6 -23.6°
Maximum altitude 01:21:24 33° 12° (NNE) 706 -2.1 -23.5°
Enters shadow 01:23:24 17° 69° (ENE) 1,108 -1.4 -23.5°
